This demonstration page uses our WeatherBlox Daily Observations layout. Learn more.

Hourly Observations for April 4, 2020

Temp ( °F °C ) Dew Point ( °F °C ) Humidity (%) Winds ( mph kmh ) Pressure ( in mb ) Visibility ( mi km ) Precip ( " mm )
12:15 am 00:15 Clear 22 -5.3 20 -6.4 92 92 Calm 30.39 1029 10 16.0934 0 0
12:35 am 00:35 Clear 23 -5 21 -6.1 92 92 Calm 30.38 1029 10 16.0934 0 0
12:55 am 00:55 Clear 23 -5.1 21 -6 93 93 Calm 30.39 1029 10 16.0934 0 0
1:15 am 01:15 Clear 23 -4.8 22 -5.8 93 93 Calm 30.39 1029 10 16.0934 0 0
1:35 am 01:35 Clear 22 -5.8 20 -6.7 93 93 Calm 30.39 1029 10 16.0934 0 0
1:55 am 01:55 Clear 21 -6.2 19 -7 94 94 NNE 3 6 30.41 1030 10 16.0934 0 0
2:10 am 02:10 Clear 20 -6.5 19 -7.1 96 96 NE 3 6 30.4 1029 10 16.0934 0 0
2:35 am 02:35 Clear 20 -6.6 19 -7.4 94 94 NNE 6 9 30.39 1029 10 16.0934 0 0
2:55 am 02:55 Clear 21 -6.1 20 -6.9 94 94 NE 5 7 30.39 1029 10 16.0934 0 0
3:15 am 03:15 Clear 21 -6.1 19 -7 93 93 NNE 5 7 30.38 1029 10 16.0934 0 0
3:35 am 03:35 Clear 20 -6.6 19 -7.5 93 93 Calm 30.39 1029 10 16.0934 0 0
3:55 am 03:55 Clear 20 -6.9 18 -7.8 93 93 Calm 30.39 1029 10 16.0934 0 0
4:15 am 04:15 Clear 20 -6.6 19 -7.3 95 95 Calm 30.39 1029 10 16.0934 0 0
4:35 am 04:35 Partly Cloudy 20 -6.8 18 -7.6 94 94 Calm 30.38 1029 10 16.0934 0 0
4:55 am 04:55 Clear 18 -7.8 17 -8.6 94 94 Calm 30.38 1029 10 16.0934 0 0
5:15 am 05:15 Clear 17 -8.2 16 -9.1 93 93 NNE 3 6 30.39 1029 10 16.0934 0 0
5:35 am 05:35 Clear 18 -8 16 -8.9 93 93 Calm 30.37 1029 10 16.0934 0 0
5:55 am 05:55 Mostly Cloudy 18 -7.7 17 -8.6 93 93 Calm 30.37 1029 10 16.0934 0 0
6:15 am 06:15 Cloudy 22 -5.7 20 -6.4 95 95 E 3 6 30.35 1028 7 11.26538 0 0
6:35 am 06:35 Cloudy with Mist and Fog 22 -5.6 20 -6.4 94 94 Calm 30.36 1028 2 3.21868 0 0
6:55 am 06:55 Cloudy with Mist and Fog 22 -5.6 21 -6.3 95 95 E 3 6 30.35 1028 1.5 2.41401 0 0
7:15 am 07:15 Cloudy with Mist and Fog 22 -5.6 21 -6.3 95 95 E 3 6 30.35 1028 1.25 2.011675 0 0
7:35 am 07:35 Cloudy with Mist and Fog 22 -5.5 21 -6.2 95 95 Calm 30.35 1028 1.75 2.816345 0 0
7:55 am 07:55 Cloudy with Mist and Fog 22 -5.5 21 -6.1 96 96 Calm 30.35 1028 0.75 1.207005 0 0
8:15 am 08:15 Cloudy with Mist and Fog 22 -5.5 21 -6.1 96 96 E 3 6 30.35 1028 0.75 1.207005 0 0
8:35 am 08:35 Cloudy with Mist and Fog 23 -5.2 21 -6 94 94 Calm 30.35 1028 0.75 1.207005 0 0
8:55 am 08:55 Cloudy with Mist and Fog 23 -5 22 -5.6 96 96 Calm 30.35 1028 1.25 2.011675 0 0
9:15 am 09:15 Cloudy with Mist and Fog 23 -5.1 22 -5.8 95 95 Calm 30.35 1028 1.25 2.011675 0 0
9:35 am 09:35 Cloudy with Mist and Fog N/A N/A N/A ESE 3 6 N/A 1 1.60934 0 0
9:55 am 09:55 Cloudy with Mist and Fog N/A N/A N/A E 3 6 N/A 1.5 2.41401 0 0
10:15 am 10:15 Cloudy with Mist and Fog N/A N/A N/A Calm N/A 2 3.21868 0 0
10:35 am 10:35 Cloudy N/A N/A N/A ESE 3 6 N/A 7 11.26538 0 0
10:55 am 10:55 Cloudy N/A N/A N/A SSE 3 6 N/A 10 16.0934 0 0
11:15 am 11:15 Cloudy N/A N/A N/A E 5 7 N/A 10 16.0934 0 0
11:35 am 11:35 Cloudy 30 -1.2 29 -1.7 96 96 ESE 7 11 30.29 1026 10 16.0934 0 0
11:55 am 11:55 Cloudy 32 0.1 30 -0.9 93 93 ESE 6 9 30.25 1025 10 16.0934 0 0
12:15 pm 12:15 Cloudy 35 1.7 27 -2.8 72 72 ESE 8 13 30.24 1024 10 16.0934 0 0
12:35 pm 12:35 Cloudy 38 3.1 27 -3 65 65 SE 8 13 30.21 1023 10 16.0934 0 0
12:55 pm 12:55 Partly Cloudy 40 4.5 26 -3.5 56 56 SE 10 17 30.18 1022 10 16.0934 0 0
1:15 pm 13:15 Sunny 42 5.5 24 -4.3 50 50 SE 8 13 30.16 1021 10 16.0934 0 0
1:35 pm 13:35 Sunny 44 6.8 24 -4.5 45 45 SE 9 15 30.13 1020 10 16.0934 0 0
1:55 pm 13:55 Sunny 45 7.3 22 -5.6 40 40 SE 8 13 30.12 1020 10 16.0934 0 0
2:15 pm 14:15 Sunny 47 8.3 21 -6.3 35 35 ESE 10 17 30.1 1019 10 16.0934 0 0
2:35 pm 14:35 Sunny 48 9.1 20 -6.9 32 32 SSE 9 15 30.08 1019 10 16.0934 0 0
2:55 pm 14:55 Sunny 49 9.6 18 -7.6 29 29 S 12 19 30.07 1018 10 16.0934 0 0
3:15 pm 15:15 Sunny 50 10 20 -6.9 30 30 SE 12 19 30.05 1018 10 16.0934 0 0
3:35 pm 15:35 Sunny 51 10.3 19 -7 29 29 SSE 15 24 30.04 1017 10 16.0934 0 0
3:55 pm 15:55 Sunny 52 11 20 -6.9 28 28 SSE 13 20 30.01 1016 10 16.0934 0 0
4:15 pm 16:15 Sunny 51 10.5 20 -6.8 29 29 SSE 13 20 30.02 1017 10 16.0934 0 0
4:35 pm 16:35 Sunny 51 10.8 20 -6.8 29 29 S 13 20 30.01 1016 10 16.0934 0 0
4:55 pm 16:55 Sunny 52 11.2 17 -8.3 25 25 SSE 14 22 29.99 1016 10 16.0934 0 0
5:15 pm 17:15 Sunny 53 11.4 19 -7.3 27 27 SSE 13 20 29.99 1016 10 16.0934 0 0
5:35 pm 17:35 Sunny 52 11.2 18 -7.6 26 26 SSE 15 24 29.99 1016 10 16.0934 0 0
5:55 pm 17:55 Sunny 52 11.1 18 -7.7 26 26 SSE 9 15 29.99 1016 10 16.0934 0 0
6:15 pm 18:15 Sunny 52 11 19 -7.2 27 27 SSE 9 15 29.99 1016 10 16.0934 0 0
6:35 pm 18:35 Sunny 51 10.5 19 -7.2 28 28 SE 12 19 30 1016 10 16.0934 0 0
6:55 pm 18:55 Sunny 51 10.3 18 -7.8 27 27 SSE 14 22 30 1016 10 16.0934 0 0
7:15 pm 19:15 Sunny 49 9.7 18 -7.6 29 29 SSE 12 19 30.02 1016 10 16.0934 0 0
7:35 pm 19:35 Sunny 48 9 19 -7 32 32 SSE 9 15 30.01 1016 10 16.0934 0 0
7:55 pm 19:55 Sunny 45 7.4 20 -6.6 37 37 SSE 7 11 30.03 1017 10 16.0934 0 0
8:15 pm 20:15 Clear 42 5.7 20 -6.5 41 41 SSE 7 11 30.05 1018 10 16.0934 0 0
8:35 pm 20:35 Clear 39 4.1 20 -6.4 47 47 SSE 7 11 30.07 1018 10 16.0934 0 0
8:55 pm 20:55 Clear 38 3.2 20 -6.5 49 49 SSE 6 9 30.08 1019 10 16.0934 0 0
9:15 pm 21:15 Clear 36 2.4 21 -6.1 54 54 SSE 7 11 30.09 1019 10 16.0934 0 0
9:35 pm 21:35 Clear 35 1.8 21 -6.1 56 56 SE 5 7 30.12 1020 10 16.0934 0 0
9:55 pm 21:55 Clear 34 1.2 21 -6.3 58 58 SE 7 11 30.12 1020 10 16.0934 0 0
10:15 pm 22:15 Clear 32 0.2 21 -6.1 63 63 SE 9 15 30.13 1020 10 16.0934 0 0
10:35 pm 22:35 Clear 31 -0.3 21 -6.1 65 65 SE 8 13 30.14 1021 10 16.0934 0 0
10:55 pm 22:55 Clear 32 0 22 -5.7 66 66 SE 8 13 30.14 1020 10 16.0934 0 0
11:15 pm 23:15 Clear 33 0.4 22 -5.5 65 65 SSE 7 11 30.12 1020 10 16.0934 0 0
11:35 pm 23:35 Clear 34 1 23 -5.2 64 64 SSE 9 15 30.11 1019 10 16.0934 0 0
11:55 pm 23:55 Clear 33 0.6 23 -5.1 66 66 SE 8 13 30.12 1020 10 16.0934 0 0

Powered by AerisWeather